DECAYED

CZ-6A DEB, 61802 (Decayed)

Orbit data source: Space-Track

CZ-6A DEB, 61802 was space debris in LEO originally from a launch on Tue, 06 Aug 2024 UTC launched from the Taiyaun Space Center, China (TSC). Debris objects in space refer to the collection of defunct objects orbiting the Earth. Examples of debris include non-operational satellites, rocket bodies, and fragments generated from explosions, collisions, or faulty payload assembly.

Not visible in the next 10 days
Identifier
61802, 2024-140ABS
Orbit
Decayed
Country
Flag of CNCN / PRC
Related business
Manufacturer
SAST
Mission
Decayed spacecraft
Bus & Motor
Unknown
Mass
Unknown
Launch date (UTC)
2024-08-06 (2 years ago)
Launch vehicle
Unknown
Launch site
Taiyaun Space Center, China (TSC)
Object type
Payload
Rocket body
Debris
Shape & HBR
Unknown shape, 1.1 m
Radar Cross Section
Small (<0.1 m²)

Expand to show TLE details & history
Last TLE update: 1 year ago

TLE from 1 year ago
0 CZ-6A DEB
1 61802U 24140ABS 24366.92960202  .03353809  00000-0  29372-1 0  9994
2 61802  89.2693 338.0950 0044033 187.6228 172.4378 15.64144940 17987
Epoch: 2024-12-31T22:18Z
TLE epoch observation values (Epoch: 2024-12-31T22:18:37.614Z)
Latitude
-0.00006°
Longitude
-97.39191°
Altitude
408.446 km
Speed
7.649 km/s
True Right ascension
22h 32m 22s
True Declination
0° 00' 00"
Sunlit
Object was in daylight at epoch
Visualization orbit readout
Latitude
Unknown
Longitude
Unknown
Altitude
Unknown
Speed
Unknown
Apparent Right ascension
Unknown
Apparent Declination
Unknown
Sunlit
N/A
Visualization observer readout
Local Sidereal Time
10:17:54
Azimuth
Unknown
Elevation
Unknown
Doppler factor
Unknown
Orbital elements
Apogee altitude
402.17 km
Perigee altitude
342.721 km
Semi-major axis
6,750.582 km
Eccentricity
0.0044
Inclination
89.2693°
RAAN
338.095°
Arg. of periapsis
187.6228°
True anomaly
172.50384°
Mean anomaly
172.4378°
Eccentric anomaly
172.47086°
Mean motion
3.91319 °/min
Orbital period
92 mins
BSTAR
0.029372
Loading maneuver chart data...
Computing Atmospheric mass density...
Loading historical data...
Loading historical data...
Loading historical data...
Loading historical data...
Loading historical data...
Loading historical data...
Loading historical data...

Documentation

Showing up to 5 results
|